Find Kosmos-1051

NORAD ID: 11128 Int'l Des: 1978-109 Owner: GUKOSR Country: SU operational
LEOCIRCULAR

Current View

Loading 3D Globe...

About Kosmos-1051

Description loading...

Upcoming Passes

Passes for default location (London). Set your location on the main map for personalized predictions.

Altitude History

Loading altitude history...

Two-Line Element Set

1 11128U 78109A 26151.15321431 -.00000014 00000-0 11202-4 0 9999
2 11128 74.0174 77.0350 0057837 54.9249 55.1653 12.55966848176983
Epoch: May 31, 2026 • Age: 8 hours

Current Status

Altitude 1468.8 km
Velocity 7.12 km/s
Sub-Earth Point -0.88°S, 167.59°W
Launch Date Dec 5, 1978
Age 47.4 years
Type other

Technical Details

Classification Payload
Mass 60.00 kg
Dry Mass 60.00 kg
Total Mass 60.00 kg
Length 0.80 m
Diameter 0.80 m
Span 0.80 m
Shape Poly
Manufacturer NPOPM
Bus Type Strela-1 11F625
Phase Status In Orbit
Owner/State GUKOSR/SU

Most Searched